Weather History for Cleveland, OH

Change the Weather History Date:

Wednesday, April 10, 2013

  Actual Average Record
Temperature  
Mean Temperature 54 °F 48 °F  
Max Temperature 67 °F 57 °F 83 °F (1978)
Min Temperature 41 °F 39 °F 20 °F (1997)
Degree Days  
Heating Degree Days 11 17  
Month to date heating degree days 195 192  
Since 1 July heating degree days 5334 5235  
Cooling Degree Days 0 0  
Month to date cooling degree days 0 0  
Year to date cooling degree days 0 1  
Growing Degree Days 4 (Base 50)    
Moisture  
Dew Point 44 °F    
Average Humidity 80    
Maximum Humidity 93    
Minimum Humidity 66    
Precipitation  
Precipitation 1.34 in 0.12 in 2.10 in (1990)
Month to date precipitation 1.37 1.21  
Year to date precipitation 8.09 9.20  
Snow  
Snow 0.00 in 0.10 in - ()
Month to date snowfall 0.2 1.9  
Since 1 July snowfall 51.6 66.7  
Snow Depth 0.00 in    
Sea Level Pressure  
Sea Level Pressure 29.92 in    
Wind  
Wind Speed 8 mph (NNW)    
Max Wind Speed 24 mph    
Max Gust Speed 37 mph    
Visibility 5 miles    
Events Rain , Thunderstorm    
T = Trace of Precipitation, MM = Missing Value Source: NWS Daily Summary

Daily Weather History Graph

Daily Weather History Graph

Search for Another Location

Airport:

Trip Planner

Search our weather history database for the weather conditions in past years. The results will help you decide how hot, cold, wet, or windy it might be!

Date:

Astronomy

Apr. 10, 2013 Rise Set
Actual Time 6:55 AM EDT 8:02 PM EDT
Civil Twilight 6:26 AM EDT 8:31 PM EDT
Nautical Twilight 5:53 AM EDT 9:05 PM EDT
Astronomical Twilight 5:17 AM EDT 9:40 PM EDT
Moon 6:50 AM EDT (4/10) 8:37 PM EDT (4/10)
Length of Visible Light 14h 04m
Length of Day
13h 07m
New Moon, 0% of the Moon is Illuminated
Apr 10
New Moon
Apr 18
First Quarter
Apr 25
Full
May 2
Last Quarter
May 9
New

Hourly Weather History & Observations

Time (EDT) Temp. Windchill Dew Point Humidity Pressure Visibility Wind Dir Wind Speed Gust Speed Precip Events Conditions
12:51 AM 55.0 °F - 45.0 °F 69% 29.94 in 10.0 mi WSW 3.5 mph - 0.00 in   Overcast
1:51 AM 54.0 °F - 45.0 °F 72% 29.95 in 10.0 mi NNW 5.8 mph - N/A   Overcast
2:51 AM 45.0 °F 40.1 °F 39.0 °F 80% 29.97 in 10.0 mi North 9.2 mph - 0.00 in   Overcast
3:51 AM 44.1 °F - 39.9 °F 85% 29.96 in 10.0 mi Calm Calm - N/A   Overcast
4:51 AM 46.0 °F - 41.0 °F 83% 29.94 in 10.0 mi Calm Calm - N/A   Overcast
5:51 AM 46.9 °F - 41.0 °F 80% 29.93 in 10.0 mi SSE 4.6 mph - N/A   Overcast
6:51 AM 48.9 °F - 42.1 °F 77% 29.92 in 10.0 mi SSE 4.6 mph - N/A   Mostly Cloudy
7:51 AM 53.1 °F - 45.0 °F 74% 29.91 in 10.0 mi SSW 3.5 mph - N/A   Overcast
8:51 AM 59.0 °F - 51.1 °F 75% 29.90 in 10.0 mi South 4.6 mph - N/A   Overcast
9:51 AM 66.9 °F - 57.0 °F 70% 29.89 in 10.0 mi SSW 9.2 mph - 0.00 in Rain Light Rain
10:25 AM 48.0 °F - 44.1 °F 86% 29.91 in 7.0 mi North 10.4 mph - 0.00 in   Overcast
10:51 AM 50.0 °F - 46.0 °F 86% 29.93 in 7.0 mi North 10.4 mph - 0.00 in   Overcast
11:36 AM 48.9 °F - 43.0 °F 80% 29.92 in 10.0 mi NNE 5.8 mph - N/A Thunderstorm Thunderstorm
11:51 AM 48.0 °F - 44.1 °F 86% 29.95 in 3.0 mi NW 8.1 mph - 0.01 in Rain , Thunderstorm Light Thunderstorms and Rain
11:55 AM 48.0 °F - 44.1 °F 86% 29.94 in 1.0 mi NW 8.1 mph - 0.08 in Rain , Thunderstorm Heavy Thunderstorms and Rain
11:57 AM 48.0 °F - 44.1 °F 86% 29.93 in 3.0 mi NW 6.9 mph - 0.10 in Rain , Thunderstorm Heavy Thunderstorms and Rain
12:06 PM 46.9 °F - 44.1 °F 90% 29.95 in 2.0 mi West 9.2 mph - 0.18 in Rain , Thunderstorm Heavy Thunderstorms and Rain
12:24 PM 46.9 °F - 45.0 °F 93% 29.92 in 5.0 mi Calm Calm - 0.33 in   Overcast
12:51 PM 48.0 °F - 45.0 °F 89% 29.88 in 6.0 mi ESE 6.9 mph - 0.34 in Rain Light Rain
1:51 PM 55.0 °F - 52.0 °F 89% 29.88 in 6.0 mi SSW 4.6 mph - 0.00 in   Overcast
2:51 PM 64.9 °F - 60.1 °F 84% 29.85 in 10.0 mi SSW 8.1 mph - N/A   Overcast
3:08 PM 54.0 °F - 50.0 °F 86% 29.87 in 9.0 mi NNW 23.0 mph 31.1 mph N/A   Overcast
3:48 PM 48.2 °F - 44.6 °F 87% 29.86 in 9.0 mi Variable 6.9 mph 21.9 mph N/A   Overcast
3:51 PM 48.9 °F - 45.0 °F 86% 29.86 in 10.0 mi ENE 9.2 mph 21.9 mph N/A   Overcast
4:32 PM 48.0 °F - 44.1 °F 86% 29.87 in 6.0 mi Calm Calm - 0.00 in Rain Light Rain
4:41 PM 48.9 °F - 45.0 °F 86% 29.93 in 4.0 mi NW 24.2 mph 36.8 mph 0.01 in Rain , Thunderstorm Light Thunderstorms and Rain
4:43 PM 48.0 °F - 45.0 °F 89% 29.92 in 2.0 mi NW 24.2 mph 36.8 mph 0.04 in Rain , Thunderstorm Light Thunderstorms and Rain
4:46 PM 46.4 °F 38.1 °F 44.6 °F 93% 29.94 in 1.8 mi NW 24.2 mph 36.8 mph 0.16 in Rain , Thunderstorm Heavy Thunderstorms and Rain
4:51 PM 46.9 °F - 45.0 °F 93% 29.93 in 1.0 mi NW 24.2 mph 36.8 mph 0.27 in Rain , Thunderstorm Heavy Thunderstorms and Rain
5:00 PM 48.0 °F - 46.0 °F 93% 29.88 in 2.0 mi ENE 9.2 mph - 0.15 in Rain , Thunderstorm Heavy Thunderstorms and Rain
5:12 PM 48.9 °F - 46.9 °F 93% 29.82 in 3.0 mi ENE 12.7 mph - 0.17 in Rain , Thunderstorm Light Thunderstorms and Rain
5:38 PM 50.0 °F - 48.9 °F 96% 29.85 in 5.0 mi West 9.2 mph - 0.19 in Rain Light Rain
5:51 PM 50.0 °F - 48.9 °F 96% 29.88 in 5.0 mi WNW 10.4 mph - 0.19 in Rain Light Rain
6:09 PM 50.0 °F - 48.0 °F 93% 29.88 in 6.0 mi WNW 4.6 mph - 0.00 in   Overcast
6:16 PM 48.9 °F - 48.0 °F 97% 29.91 in 5.0 mi WNW 10.4 mph - 0.00 in Thunderstorm Overcast
6:19 PM 46.0 °F 41.0 °F 45.0 °F 96% 29.92 in 0.8 mi WNW 10.4 mph - 0.00 in Thunderstorm Overcast
6:22 PM 44.1 °F 37.1 °F 42.1 °F 93% 29.92 in 0.5 mi North 15.0 mph - 0.00 in Thunderstorm Overcast
6:51 PM 43.0 °F 35.4 °F 42.1 °F 97% 29.95 in 0.5 mi North 16.1 mph - 0.00 in Thunderstorm Overcast
6:57 PM 42.1 °F 33.6 °F 41.0 °F 96% 29.94 in 0.5 mi North 18.4 mph - 0.00 in Rain Light Rain
7:09 PM 42.8 °F 34.8 °F 41.0 °F 93% 29.95 in 0.5 mi NNE 17.3 mph - N/A Rain , Thunderstorm Light Thunderstorms and Rain
7:26 PM 41.0 °F 35.2 °F 39.9 °F 96% 30.00 in 1.0 mi NE 9.2 mph - 0.06 in Rain , Thunderstorm Heavy Thunderstorms and Rain
7:45 PM 41.0 °F 33.5 °F 39.2 °F 93% 29.98 in 2.0 mi NNE 13.8 mph - 0.16 in Rain , Thunderstorm Light Thunderstorms and Rain
7:51 PM 41.0 °F 34.3 °F 39.9 °F 96% 30.00 in 2.0 mi NNE 11.5 mph - 0.16 in Rain , Thunderstorm Light Thunderstorms and Rain
8:22 PM 41.0 °F 33.1 °F 39.9 °F 96% 29.95 in 2.0 mi NNE 15.0 mph - 0.13 in Rain , Thunderstorm Thunderstorms and Rain
8:51 PM 41.0 °F 34.3 °F 39.9 °F 96% 29.87 in 2.0 mi ENE 11.5 mph - 0.19 in Rain , Thunderstorm Light Thunderstorms and Rain
9:02 PM 41.0 °F 34.3 °F 41.0 °F 100% 29.86 in 2.0 mi ESE 11.5 mph - 0.00 in Rain Light Rain
9:30 PM 43.0 °F 35.4 °F 41.0 °F 93% 29.93 in 3.0 mi NNW 16.1 mph 20.7 mph 0.00 in   Overcast
9:51 PM 42.1 °F 35.7 °F 41.0 °F 96% 29.96 in 3.0 mi North 11.5 mph - 0.00 in Rain Light Rain
10:33 PM 42.1 °F 37.7 °F 41.0 °F 96% 29.91 in 3.0 mi SE 6.9 mph - 0.00 in   Overcast
10:51 PM 42.8 °F 40.1 °F 41.0 °F 93% 29.90 in 3.0 mi NNW 4.6 mph - N/A   Overcast
11:12 PM 43.0 °F 38.2 °F 41.0 °F 93% 29.95 in 3.0 mi West 8.1 mph - 0.00 in Rain Light Rain
11:51 PM 43.0 °F 37.2 °F 41.0 °F 93% 29.94 in 3.0 mi NNE 10.4 mph - 0.02 in Rain Light Rain